Hourly Data Report for October 06, 2013

All times are specified in Local Standard Time (LST). Add 1 hour to adjust for Daylight Saving Time where and when it is observed.

KUGAARUK CLIMATE
NUNAVUT

68°32'15.060" N
89°47'47.020" W
15.80 m
2303094
71407
NBB

Download Data

Hourly Data (October 2013)
Hourly Data Report for October 6, 2013
Temp Definition
°C
Dew Point Temp Definition
°C
Rel Hum Definition
%
Wind Dir Definition
10's deg

Wind Spd Definition
km/h
Visibility Definition
km
Stn Press Definition
kPa
Hmdx Definition


Wind Chill Definition


Weather Definition


TIME
00:00 -5.6 -9.1 76 16 13   101.55   -11 LegendNANA
01:00 -6.2 -8.9 81 14 15   101.56   -12 LegendNANA
02:00 -6.3 -8.9 82 12 15   101.54   -12 LegendNANA
03:00 -6.2 -9.2 79 16 11   101.52   -11 LegendNANA
04:00 -5.8 -9.0 78 15 15   101.50   -12 LegendNANA
05:00 -5.9 -8.8 80 15 24   101.49   -13 LegendNANA
06:00 -5.3 -8.1 81 14 17   101.51   -11 LegendNANA
07:00 -4.5 -7.3 81 14 20   101.51   -11 LegendNANA
08:00 -3.9 -6.7 81 15 22   101.51   -10 LegendNANA
09:00 -3.3 -6.5 78 15 26   101.50   -10 LegendNANA
10:00 -2.4 -5.8 77 15 22   101.51   -9 LegendNANA
11:00 -1.6 -6.0 72 15 19   101.52   -7 LegendNANA
12:00 -1.6 -5.9 72 15 17   101.53   -7 LegendNANA
13:00 -2.0 -6.2 73 15 19   101.53   -8 LegendNANA
14:00 -2.1 -6.1 74 15 15   101.54   -7 LegendNANA
15:00 -2.7 -5.4 82 13 20   101.55   -9 LegendNANA
16:00 -2.9 -5.3 83 14 26   101.56   -10 LegendNANA
17:00 -3.0 -5.1 85 14 24   101.57   -10 LegendNANA
18:00 -2.7 -5.5 81 15 24   101.58   -9 LegendNANA
19:00 -3.5 -5.6 85 13 22   101.57   -10 LegendNANA
20:00 -3.5 -5.3 87 13 20   101.54   -10 LegendNANA
21:00 -3.6 -5.2 89 11 17   101.55   -9 LegendNANA
22:00 -3.8 -5.7 87 12 15   101.57   -9 LegendNANA
23:00 -3.9 -5.5 89 12 17   101.58   -10 LegendNANA

Notes on Data Quality.

Legend

  • E = Estimated
  • M = Missing
  • NA = Not Available
  • ‡ = Partner data that is not subject to review by the National Climate Archives
Date modified: